Weather History for Chickasha, OK

Change the Weather History Date:

Wednesday, March 27, 2013

  Actual Average Record
Temperature  
Mean Temperature 54 °F -  
Max Temperature 71 °F 70 °F 91 °F (1971)
Min Temperature 37 °F 42 °F 18 °F (1955)
Degree Days  
Heating Degree Days 11    
Growing Degree Days 4 (Base 50)    
Moisture  
Dew Point 34 °F    
Average Humidity 49    
Maximum Humidity 67    
Minimum Humidity 35    
Precipitation  
Precipitation 0.00 in - - ()
Sea Level Pressure  
Sea Level Pressure 30.12 in    
Wind  
Wind Speed 14 mph (SSE)    
Max Wind Speed 26 mph    
Max Gust Speed 37 mph    
Visibility 10 miles    
Events      
Averages and records for this station are not official NWS values.
T = Trace of Precipitation, MM = Missing Value Source: NWS Daily Summary

Daily Weather History Graph

Daily Weather History Graph

Search for Another Location

Airport:

Trip Planner

Search our weather history database for the weather conditions in past years. The results will help you decide how hot, cold, wet, or windy it might be!

Date:

Astronomy

Mar. 27, 2013 Rise Set
Actual Time 7:25 AM CDT 7:49 PM CDT
Civil Twilight 6:59 AM CDT 8:14 PM CDT
Nautical Twilight 6:30 AM CDT 8:44 PM CDT
Astronomical Twilight 5:59 AM CDT 9:15 PM CDT
Moon 8:31 PM CDT (3/27) 7:18 AM CDT (3/27)
Length of Visible Light 13h 15m
Length of Day
12h 24m
Full, 100% of the Moon is Illuminated
Mar 27
Full
Apr 2
Last Quarter
Apr 10
New
Apr 18
First Quarter
Apr 25
Full

Hourly Weather History & Observations

Time (CDT) Temp. Windchill Dew Point Humidity Pressure Visibility Wind Dir Wind Speed Gust Speed Precip Events Conditions
12:15 AM 41.0 °F 33.9 °F 26.6 °F 57% 30.21 in 10.0 mi SSE 12.7 mph 17.3 mph N/A   Clear
12:35 AM 41.0 °F 32.8 °F 26.6 °F 57% 30.20 in 10.0 mi SSE 16.1 mph 20.7 mph N/A   Clear
12:55 AM 41.0 °F 32.5 °F 26.6 °F 57% 30.20 in 10.0 mi South 17.3 mph - N/A   Clear
1:15 AM 41.0 °F 33.5 °F 26.6 °F 57% 30.20 in 10.0 mi SSE 13.8 mph 20.7 mph N/A   Clear
1:35 AM 41.0 °F 33.5 °F 26.6 °F 57% 30.19 in 10.0 mi SSE 13.8 mph - N/A   Clear
1:55 AM 41.0 °F 33.5 °F 26.6 °F 57% 30.19 in 10.0 mi South 13.8 mph - N/A   Clear
2:15 AM 39.2 °F 31.6 °F 26.6 °F 61% 30.19 in 10.0 mi SSE 12.7 mph - N/A   Clear
2:35 AM 39.2 °F 31.2 °F 26.6 °F 61% 30.19 in 10.0 mi SSE 13.8 mph - N/A   Clear
2:55 AM 39.2 °F 31.6 °F 26.6 °F 61% 30.19 in 10.0 mi SSE 12.7 mph - N/A   Clear
3:15 AM 39.2 °F 32.5 °F 26.6 °F 61% 30.19 in 10.0 mi SSE 10.4 mph - N/A   Clear
3:35 AM 39.2 °F 33.0 °F 26.6 °F 61% 30.18 in 10.0 mi SSE 9.2 mph - N/A   Clear
3:55 AM 39.2 °F 33.0 °F 26.6 °F 61% 30.18 in 10.0 mi SSE 9.2 mph - N/A   Clear
4:15 AM 39.2 °F 33.6 °F 26.6 °F 61% 30.17 in 10.0 mi SSE 8.1 mph - N/A   Clear
4:35 AM 39.2 °F 33.0 °F 26.6 °F 61% 30.17 in 10.0 mi SSE 9.2 mph - N/A   Clear
4:55 AM 41.0 °F 36.4 °F 26.6 °F 57% 30.17 in 10.0 mi SSE 6.9 mph - N/A   Clear
5:15 AM 41.0 °F 36.4 °F 26.6 °F 57% 30.17 in 10.0 mi SSE 6.9 mph - N/A   Clear
5:35 AM 39.2 °F 34.2 °F 26.6 °F 61% 30.17 in 10.0 mi SSE 6.9 mph - N/A   Clear
5:55 AM 37.4 °F 32.1 °F 26.6 °F 65% - 10.0 mi South 6.9 mph - N/A   Clear
6:15 AM 39.2 °F 33.6 °F 28.4 °F 65% 30.18 in 10.0 mi South 8.1 mph - N/A   Clear
6:35 AM 41.0 °F 34.3 °F 26.6 °F 57% 30.17 in 10.0 mi South 11.5 mph 23.0 mph N/A   Clear
6:55 AM 42.8 °F 35.4 °F 26.6 °F 53% 30.16 in 10.0 mi South 15.0 mph 20.7 mph N/A   Clear
7:15 AM 42.8 °F 35.4 °F 26.6 °F 53% 30.16 in 10.0 mi South 15.0 mph 20.7 mph N/A   Clear
7:35 AM 42.8 °F 36.6 °F 26.6 °F 53% 30.18 in 10.0 mi South 11.5 mph 18.4 mph N/A   Clear
7:55 AM 44.6 °F 37.2 °F 26.6 °F 49% 30.17 in 10.0 mi South 17.3 mph 25.3 mph N/A   Clear
8:15 AM 44.6 °F 37.2 °F 28.4 °F 53% 30.17 in 10.0 mi South 17.3 mph 24.2 mph N/A   Clear
8:35 AM 46.4 °F 39.5 °F 28.4 °F 50% 30.16 in 10.0 mi South 17.3 mph 23.0 mph N/A   Clear
8:55 AM 46.4 °F 39.5 °F 28.4 °F 50% 30.17 in 10.0 mi South 17.3 mph - N/A   Clear
9:15 AM 48.2 °F - 30.2 °F 50% 30.17 in 10.0 mi South 16.1 mph 19.6 mph N/A   Clear
9:35 AM 48.2 °F - 30.2 °F 50% 30.18 in 10.0 mi South 15.0 mph - N/A   Clear
9:55 AM 51.8 °F - 32.0 °F 47% 30.18 in 10.0 mi South 15.0 mph 25.3 mph N/A   Clear
10:15 AM 53.6 °F - 32.0 °F 44% 30.17 in 10.0 mi South 21.9 mph 26.5 mph N/A   Clear
10:35 AM 53.6 °F - 32.0 °F 44% 30.17 in 10.0 mi South 24.2 mph 28.8 mph N/A   Clear
10:55 AM 55.4 °F - 33.8 °F 44% 30.17 in 10.0 mi South 21.9 mph 27.6 mph N/A   Clear
11:15 AM 55.4 °F - 33.8 °F 44% 30.16 in 10.0 mi South 23.0 mph 33.4 mph N/A   Clear
11:35 AM 55.4 °F - 33.8 °F 44% 30.15 in 10.0 mi SSW 18.4 mph 32.2 mph N/A   Clear
11:55 AM 55.4 °F - 33.8 °F 44% 30.14 in 10.0 mi South 24.2 mph 31.1 mph N/A   Clear
12:15 PM 59.0 °F - 35.6 °F 42% 30.13 in 10.0 mi South 26.5 mph 36.8 mph N/A   Clear
12:35 PM 59.0 °F - 35.6 °F 42% 30.12 in 10.0 mi South 21.9 mph 35.7 mph N/A   Clear
12:55 PM 60.8 °F - 35.6 °F 39% 30.11 in 10.0 mi South 26.5 mph 35.7 mph N/A   Clear
1:15 PM 60.8 °F - 35.6 °F 39% 30.09 in 10.0 mi South 20.7 mph 32.2 mph N/A   Clear
1:35 PM 62.6 °F - 37.4 °F 39% 30.09 in 10.0 mi South 25.3 mph 32.2 mph N/A   Clear
1:55 PM 66.2 °F - 41.0 °F 40% 30.08 in 10.0 mi South 20.7 mph 33.4 mph N/A   Clear
2:15 PM 66.2 °F - 39.2 °F 37% 30.08 in 10.0 mi SSW 18.4 mph 29.9 mph N/A   Clear
2:35 PM 68.0 °F - 41.0 °F 37% 30.07 in 10.0 mi SSW 19.6 mph 28.8 mph N/A   Clear
2:55 PM 68.0 °F - 41.0 °F 37% 30.05 in 10.0 mi SSW 24.2 mph 31.1 mph N/A   Clear
3:15 PM 68.0 °F - 41.0 °F 37% 30.04 in 10.0 mi South 23.0 mph 29.9 mph N/A   Clear
3:35 PM 68.0 °F - 41.0 °F 37% 30.04 in 10.0 mi South 20.7 mph 29.9 mph N/A   Clear
3:55 PM 68.0 °F - 41.0 °F 37% 30.04 in 10.0 mi South 19.6 mph 28.8 mph N/A   Clear
4:15 PM 69.8 °F - 41.0 °F 35% 30.04 in 10.0 mi SSW 15.0 mph 25.3 mph N/A   Clear
4:35 PM 71.6 °F - 42.8 °F 35% 30.04 in 10.0 mi South 15.0 mph 24.2 mph N/A   Clear
4:55 PM 69.8 °F - 42.8 °F 38% 30.03 in 10.0 mi South 15.0 mph 24.2 mph N/A   Clear
5:15 PM 69.8 °F - 41.0 °F 35% 30.03 in 10.0 mi South 18.4 mph 23.0 mph N/A   Clear
5:35 PM 71.6 °F - 42.8 °F 35% 30.03 in 10.0 mi South 16.1 mph 25.3 mph N/A   Clear
5:55 PM 69.8 °F - 42.8 °F 38% 30.03 in 10.0 mi South 10.4 mph 16.1 mph N/A   Clear
6:15 PM 68.0 °F - 41.0 °F 37% 30.03 in 10.0 mi South 13.8 mph 19.6 mph N/A   Clear
6:35 PM 68.0 °F - 42.8 °F 40% 30.03 in 10.0 mi South 13.8 mph 18.4 mph N/A   Clear
6:55 PM 68.0 °F - 42.8 °F 40% 30.03 in 10.0 mi South 11.5 mph - N/A   Clear
7:15 PM 68.0 °F - 42.8 °F 40% 30.04 in 10.0 mi South 9.2 mph - N/A   Clear
7:35 PM 64.4 °F - 41.0 °F 42% 30.04 in 10.0 mi SSE 10.4 mph - N/A   Clear
7:55 PM 62.6 °F - 41.0 °F 45% 30.04 in 10.0 mi SSE 10.4 mph - N/A   Clear
8:15 PM 62.6 °F - 41.0 °F 45% 30.04 in 10.0 mi SSE 12.7 mph - N/A   Clear
8:35 PM 60.8 °F - 41.0 °F 48% 30.05 in 10.0 mi SSE 10.4 mph - N/A   Clear
8:55 PM 60.8 °F - 41.0 °F 48% 30.05 in 10.0 mi SSE 9.2 mph - N/A   Clear
9:15 PM 59.0 °F - 41.0 °F 51% 30.06 in 10.0 mi SE 8.1 mph - N/A   Clear
9:35 PM 55.4 °F - 41.0 °F 58% 30.07 in 10.0 mi ESE 8.1 mph - N/A   Clear
9:55 PM 55.4 °F - 41.0 °F 58% 30.07 in 10.0 mi SE 9.2 mph - N/A   Clear
10:15 PM 55.4 °F - 41.0 °F 58% 30.08 in 10.0 mi SE 9.2 mph - N/A   Clear
10:35 PM 53.6 °F - 39.2 °F 58% 30.09 in 10.0 mi SE 9.2 mph - N/A   Clear
10:55 PM 53.6 °F - 41.0 °F 62% 30.09 in 10.0 mi SE 10.4 mph - N/A   Clear
11:15 PM 53.6 °F - 41.0 °F 62% 30.09 in 10.0 mi SE 9.2 mph - N/A   Clear
11:35 PM 53.6 °F - 41.0 °F 62% 30.09 in 10.0 mi ESE 8.1 mph - N/A   Clear
11:55 PM 53.6 °F - 42.8 °F 67% 30.09 in 10.0 mi SE 6.9 mph - N/A   Clear